Hourly Data Report for October 06, 2017

All times are specified in Local Standard Time (LST). Add 1 hour to adjust for Daylight Saving Time where and when it is observed.

GRAND MANAN SAR CS
NEW BRUNSWICK

44°42'43.400" N
66°48'06.900" W
78.20 m
8101925
71030
XGM

Download Data

Hourly Data (October 2017)
Hourly Data Report for October 6, 2017
Temp Definition
°C
Dew Point Temp Definition
°C
Rel Hum Definition
%
Wind Dir Definition
10's deg

Wind Spd Definition
km/h
Visibility Definition
km
Stn Press Definition
kPa
Hmdx Definition


Wind Chill Definition


Weather Definition


TIME
00:00 14.2 12.0 87 25 12   100.51     LegendNANA
01:00 12.8 11.3 91 28 5   100.55     LegendNANA
02:00 10.2 9.3 94 29 2   100.55     LegendNANA
03:00 11.7 9.6 87 31 7   100.57     LegendNANA
04:00 10.4 8.2 87 28 5   100.58     LegendNANA
05:00 10.6 8.4 86 27 6   100.65     LegendNANA
06:00 12.5 7.9 74 30 9   100.69     LegendNANA
07:00 11.5 7.9 78 29 6   100.74     LegendNANA
08:00 13.8 8.8 72 31 8   100.78     LegendNANA
09:00 14.1 8.8 70 32 8   100.81     LegendNANA
10:00 15.4 6.9 57 34 10   100.82     LegendNANA
11:00 16.6 7.5 55 31 5   100.85     LegendNANA
12:00 13.6 10.0 79 25 6   100.88     LegendNANA
13:00 12.9 11.3 90 21 8   100.79     LegendNANA
14:00 12.9 10.8 88 25 8   100.81     LegendNANA
15:00 12.6 10.9 90 24 8   100.80     LegendNANA
16:00 13.4 11.4 88 24 7   100.74     LegendNANA
17:00 13.4 10.4 82 23 8   100.72     LegendNANA
18:00 12.4 9.7 84 23 8   100.77     LegendNANA
19:00 11.6 10.1 90 24 7   100.84     LegendNANA
20:00 10.6 9.7 94 24 6   100.87     LegendNANA
21:00 10.9 10.1 95 26 5   100.95     LegendNANA
22:00 8.0 7.2 95 30 2   101.01     LegendNANA
23:00 9.0 8.7 98 31 5   101.08     LegendNANA

Notes on Data Quality.

Legend

  • E = Estimated
  • M = Missing
  • NA = Not Available
  • ‡ = Partner data that is not subject to review by the National Climate Archives
Date modified: